📊 Raw Sensor Data

Showing records 46276 to 46300 of 85,068 total

ID Distance (ft) Battery V Battery A Int Temp (°F) Int Humid (%) Ext Temp (°F) Solar V RSSI SNR Time Stamp
38805 -- 3.98 5 59 40 58 5.10 -75 9 04/25/2025 09:30 AM
38804 -- 3.98 0 58 40 57 5.10 -74 8 04/25/2025 09:15 AM
38803 -- 3.98 0 57 39 57 5.10 -72 8 04/25/2025 09:00 AM
38802 -- 3.98 5 57 39 61 5.10 -75 9 04/25/2025 08:45 AM
38801 -- 3.98 0 56 39 61 5.10 -73 8 04/25/2025 08:30 AM
38800 -- 4.03 5 53 39 59 5.10 -73 8 04/25/2025 08:15 AM
38799 -- 3.98 0 51 39 56 5.10 -72 9 04/25/2025 08:00 AM
38798 -- 4.03 29 49 39 53 4.50 -73 9 04/25/2025 07:45 AM
38797 -- 3.99 5 47 40 52 4.50 -75 8 04/25/2025 07:30 AM
38796 -- 4.01 7 45 40 49 4.50 -75 9 04/25/2025 07:15 AM
38795 -- 3.92 0 45 40 46 4.50 -75 9 04/25/2025 07:00 AM
38794 -- 3.91 0 45 40 46 4.50 -75 8 04/25/2025 06:45 AM
38793 -- 3.95 -10 45 41 46 4.50 -75 8 04/25/2025 06:30 AM
38792 -- 3.90 -9 44 41 46 4.00 -74 8 04/25/2025 06:15 AM
38791 -- 3.91 -5 44 41 46 0.80 -75 8 04/25/2025 06:00 AM
38790 -- 3.91 -5 45 41 46 0.10 -71 8 04/25/2025 05:45 AM
38789 -- 3.91 -5 45 41 46 0.00 -74 8 04/25/2025 05:30 AM
38788 -- 3.97 -5 45 41 46 0.00 -74 8 04/25/2025 05:15 AM
38787 -- 3.91 -5 46 41 47 0.00 -75 8 04/25/2025 05:00 AM
38786 -- 3.91 -5 46 41 47 0.00 -74 8 04/25/2025 04:45 AM
38785 -- 3.91 -5 47 41 47 0.00 -75 7 04/25/2025 04:30 AM
38784 -- 3.91 -5 47 41 48 0.00 -74 8 04/25/2025 04:15 AM
38783 -- 3.92 -5 47 41 48 0.00 -75 8 04/25/2025 04:00 AM
38782 -- 3.91 -5 48 41 48 0.10 -75 8 04/25/2025 03:46 AM
38781 -- 3.97 -5 48 41 48 0.00 -74 8 04/25/2025 03:30 AM